Location: Chèvreville
(49.1099°N, 2.8495°E)
Time: 19:19:04
(UTC+00:00)

Cosmos 1607 - Pass Details

Date: 28 January 2023
Orbit: 921 x 981 km, 65.0° (Epoch: 25 March)

Event Time Altitude Azimuth Distance (km) Brightness Sun altitude
Rises 18:03:04 0° 202° (SSW) 3,550 7.4 -13.8°
Reaches altitude 10° 18:05:36 10° 199° (SSW) 2,613 6.7 -14.2°
Maximum altitude 18:11:33 58° 121° (ESE) 1,074 4.0 -15.2°
Enters shadow 18:16:05 18° 48° (NE) 2,119 5.3 -15.9°
